Location: Vancouver
(49.2500°N, 123.1330°W)
Time: 20:48:45
(UTC-07:00)

Cosmos 1939 Rocket - Visible Passes

Search period start: 25 September 2017 00:00
Search period end: 05 October 2017 00:00
Orbit: 534 x 586 km, 97.5° (Epoch: 25 September)

Date Brightness Start Highest point End Pass type
(mag) Time Alt. Az. Time Alt. Az. Time Alt. Az.
25 Sep 4.6 19:49:37 11° E 19:51:43 16° ENE 19:54:08 10° NNE visible
25 Sep 3.2 21:25:32 50° SW 21:26:14 59° W 21:30:10 10° NNW visible
26 Sep 4.6 19:48:28 11° E 19:50:27 15° ENE 19:52:49 10° NNE visible
26 Sep 3.2 21:24:23 54° SW 21:24:56 61° W 21:28:53 10° NNW visible
27 Sep 4.6 19:47:19 11° E 19:49:10 15° ENE 19:51:29 10° NNE visible
27 Sep 3.1 21:23:14 58° SW 21:23:38 63° WSW 21:27:36 10° NNW visible
28 Sep 4.7 19:46:09 12° E 19:47:54 15° ENE 19:50:09 10° NNE visible
28 Sep 3.0 21:22:05 63° SW 21:22:20 65° WSW 21:26:20 10° NNW visible
29 Sep 4.7 19:45:01 12° E 19:46:38 14° ENE 19:48:49 10° NNE visible
29 Sep 3.0 21:20:56 66° WSW 21:21:03 67° WSW 21:25:03 10° NNW visible
30 Sep 4.7 19:43:51 12° E 19:45:21 14° ENE 19:47:29 10° NNE visible
30 Sep 3.0 21:19:47 69° W 21:19:47 69° W 21:23:47 10° NNW visible
01 Oct 4.7 19:42:42 12° E 19:44:05 14° ENE 19:46:09 10° NNE visible
01 Oct 3.0 21:18:37 70° W 21:18:37 70° W 21:22:30 10° NNW visible
02 Oct 4.7 19:41:32 12° E 19:42:48 14° ENE 19:44:49 10° NNE visible
02 Oct 3.0 21:17:28 69° WNW 21:17:28 69° WNW 21:21:14 10° NNW visible
03 Oct 4.7 19:40:23 12° ENE 19:41:32 13° ENE 19:43:29 10° NNE visible
03 Oct 3.1 21:16:19 67° NW 21:16:19 67° NW 21:19:57 10° NNW visible
04 Oct 4.8 19:39:14 12° ENE 19:40:16 13° ENE 19:42:09 10° NNE visible
04 Oct 3.2 21:15:09 64° NW 21:15:09 64° NW 21:18:40 10° NNW visible
